TimeCDT,TemperatureF,Dew PointF,Humidity,Sea Level PressureIn,VisibilityMPH,Wind Direction,Wind SpeedMPH,Gust SpeedMPH,PrecipitationIn,Events,Conditions,WindDirDegrees,DateUTC
12:28 AM,50.0,37.4,62,29.81,10.0,WNW,9.2,-,N/A,Rain,Light Rain Showers,290,2011-10-16 05:28:00
12:47 AM,48.2,41.0,76,29.80,10.0,WNW,6.9,-,N/A,,Mostly Cloudy,290,2011-10-16 05:47:00
12:55 AM,48.2,41.0,76,29.81,10.0,WNW,5.8,-,N/A,,Mostly Cloudy,290,2011-10-16 05:55:00
1:55 AM,46.4,39.2,76,29.81,10.0,NW,4.6,-,N/A,,Overcast,310,2011-10-16 06:55:00
2:55 AM,46.4,41.0,81,29.81,10.0,West,4.6,-,N/A,,Overcast,270,2011-10-16 07:55:00
3:02 AM,46.4,39.2,76,29.80,10.0,West,5.8,-,N/A,Rain,Light Rain,270,2011-10-16 08:02:00
3:12 AM,48.2,39.2,71,29.80,10.0,WNW,6.9,-,N/A,,Overcast,290,2011-10-16 08:12:00
3:55 AM,46.4,41.0,81,29.80,10.0,WSW,5.8,-,N/A,,Overcast,250,2011-10-16 08:55:00
4:55 AM,46.4,39.2,76,29.79,10.0,West,4.6,-,N/A,,Overcast,270,2011-10-16 09:55:00
5:55 AM,44.6,39.2,81,29.79,10.0,WNW,5.8,-,N/A,,Overcast,290,2011-10-16 10:55:00
6:55 AM,39.2,35.6,87,29.80,10.0,West,4.6,-,N/A,,Partly Cloudy,280,2011-10-16 11:55:00
7:55 AM,41.0,37.4,87,29.81,10.0,West,6.9,-,N/A,,Partly Cloudy,280,2011-10-16 12:55:00
8:55 AM,48.2,41.0,76,29.82,10.0,WNW,9.2,-,N/A,,Partly Cloudy,290,2011-10-16 13:55:00
9:55 AM,51.8,39.2,62,29.81,10.0,WNW,16.1,-,N/A,,Clear,290,2011-10-16 14:55:00
10:55 AM,55.4,35.6,47,29.81,10.0,WNW,16.1,25.3,N/A,,Partly Cloudy,290,2011-10-16 15:55:00
11:55 AM,57.2,37.4,48,29.79,10.0,West,17.3,25.3,N/A,,Scattered Clouds,280,2011-10-16 16:55:00
12:55 PM,57.2,35.6,44,29.78,10.0,WNW,23.0,32.2,N/A,,Mostly Cloudy,290,2011-10-16 17:55:00
1:55 PM,59.0,32.0,36,29.76,10.0,WNW,23.0,34.5,N/A,,Scattered Clouds,290,2011-10-16 18:55:00
2:55 PM,59.0,30.2,34,29.76,10.0,West,24.2,32.2,N/A,,Partly Cloudy,280,2011-10-16 19:55:00
3:55 PM,57.2,28.4,33,29.76,10.0,WNW,20.7,27.6,N/A,,Partly Cloudy,290,2011-10-16 20:55:00
4:55 PM,57.2,28.4,33,29.76,10.0,West,15.0,31.1,N/A,,Partly Cloudy,280,2011-10-16 21:55:00
5:55 PM,53.6,28.4,38,29.76,10.0,West,20.7,26.5,N/A,,Partly Cloudy,270,2011-10-16 22:55:00
6:55 PM,51.8,27.7,39,29.76,10.0,West,15.0,-,N/A,,Clear,270,2011-10-16 23:55:00
7:55 PM,50.9,28.2,42,29.77,10.0,West,16.1,24.2,N/A,,Clear,270,2011-10-17 00:55:00
8:55 PM,49.8,29.3,45,29.79,10.0,West,13.8,27.6,N/A,,Clear,270,2011-10-17 01:55:00
9:55 PM,48.2,28.4,46,29.81,10.0,West,16.1,24.2,N/A,,Clear,280,2011-10-17 02:55:00
10:55 PM,46.4,30.2,53,29.81,10.0,West,13.8,23.0,N/A,,Clear,280,2011-10-17 03:55:00
11:55 PM,46.4,30.2,53,29.81,10.0,West,13.8,-,N/A,,Clear,270,2011-10-17 04:55:00